User: anonymous   Login
Location: Bonn
(50.7330°N, 7.1000°E)
Time: 14:30:45
(UTC+01:00)
Language:

Iridium 84 - Orbit

View from above orbital plane
View from above orbital plane
View from above satellite
View from above satellite

Ground track
Ground track

The orbit data is extracted from the following two-line orbital elements,

1 25530U 98066D   17082.88783171 +.00000169 +00000-0 +53347-4 0  9997
2 25530 086.3991 025.6193 0002231 082.9022 277.2427 14.34219720964700
Epoch (UTC): 23 March 2017 21:18:28
Eccentricity: 0.0002231
inclination: 86.3991°
perigee height: 776 km
apogee height: 779 km
right ascension of ascending node: 25.6193°
argument of perigee: 82.9022°
revolutions per day: 14.34219720
mean anomaly at epoch: 277.2427°
orbit number at epoch: 96470

The dashed part of the orbit path shows where the satellite is in the earth's shadow,  

DLR